• In Belarus
  • List of Countries
  • For 7 days
  • Water Temperature
  • Satellite Maps
  • Weather Map
  • Weather Widgets
  • user-avatar
    Login

    Hourly Weather Sevan

    Today, 23 September, Sunday

    Time Temperature Precipitation Wind Pressure Humidity
    00:00 +14°C° 0.3 mm 1 mps 644 mmHg 76%
    01:00 +14°C° 0 mm 1 mps 643 mmHg 77%
    02:00 +13°C° 0 mm 1 mps 643 mmHg 78%
    03:00 +13°C° 0 mm 1 mps 643 mmHg 78%
    04:00 +13°C° 0 mm 1 mps 643 mmHg 79%
    05:00 +13°C° 0 mm 1 mps 643 mmHg 80%
    06:00 +12°C° 0 mm 1 mps 643 mmHg 81%
    07:00 +14°C° 0 mm 1 mps 643 mmHg 71%
    08:00 +16°C° 0 mm 1 mps 644 mmHg 62%
    09:00 +19°C° 0 mm 1 mps 645 mmHg 53%
    10:00 +21°C° 0 mm 1 mps 645 mmHg 48%
    11:00 +22°C° 0 mm 1 mps 645 mmHg 43%
    12:00 +23°C° 0 mm 2 mps 645 mmHg 39%
    13:00 +23°C° 0.1 mm 2 mps 645 mmHg 37%
    14:00 +24°C° 0.1 mm 2 mps 644 mmHg 36%
    15:00 +24°C° 0.1 mm 2 mps 644 mmHg 35%
    16:00 +21°C° 0.3 mm 2 mps 644 mmHg 41%
    17:00 +19°C° 0.3 mm 2 mps 643 mmHg 48%
    18:00 +18°C° 0.3 mm 1 mps 643 mmHg 54%
    19:00 +18°C° 0.4 mm 1 mps 643 mmHg 58%
    20:00 +16°C° 0.4 mm 1 mps 643 mmHg 62%
    21:00 +15°C° 0.4 mm 2 mps 644 mmHg 65%
    22:00 +15°C° 0.1 mm 2 mps 644 mmHg 68%
    23:00 +14°C° 0.1 mm 2 mps 644 mmHg 72%

    Tomorrow, 24 September, Monday

    Time Temperature Precipitation Wind Pressure Humidity
    00:00 +14°C° 0.1 mm 2 mps 644 mmHg 75%
    01:00 +13°C° 0 mm 2 mps 644 mmHg 77%
    02:00 +13°C° 0 mm 1 mps 644 mmHg 80%
    03:00 +13°C° 0 mm 1 mps 643 mmHg 82%
    04:00 +12°C° 0 mm 1 mps 643 mmHg 82%
    05:00 +12°C° 0 mm 1 mps 643 mmHg 82%
    06:00 +12°C° 0 mm 1 mps 643 mmHg 82%
    07:00 +14°C° 0 mm 1 mps 644 mmHg 72%
    08:00 +16°C° 0 mm 1 mps 645 mmHg 62%
    09:00 +19°C° 0 mm 1 mps 646 mmHg 52%
    10:00 +21°C° 0 mm 1 mps 646 mmHg 48%
    11:00 +22°C° 0 mm 1 mps 646 mmHg 43%
    12:00 +23°C° 0 mm 2 mps 646 mmHg 39%
    13:00 +23°C° 0 mm 2 mps 646 mmHg 38%
    14:00 +24°C° 0 mm 2 mps 645 mmHg 37%
    15:00 +24°C° 0 mm 2 mps 645 mmHg 36%
    16:00 +22°C° 0 mm 1 mps 645 mmHg 41%
    17:00 +20°C° 0 mm 1 mps 644 mmHg 47%
    18:00 +18°C° 0 mm 1 mps 643 mmHg 52%
    19:00 +16°C° 0 mm 1 mps 644 mmHg 57%
    20:00 +16°C° 0 mm 1 mps 644 mmHg 61%
    21:00 +15°C° 0 mm 1 mps 644 mmHg 66%
    22:00 +15°C° 0 mm 1 mps 644 mmHg 68%
    23:00 +14°C° 0 mm 1 mps 644 mmHg 70%

    Day after tomorrow, 25 September, Tuesday

    Time Temperature Precipitation Wind Pressure Humidity
    00:00 +14°C° 0 mm 1 mps 644 mmHg 73%
    01:00 +14°C° 0 mm 1 mps 644 mmHg 73%
    02:00 +13°C° 0 mm 1 mps 643 mmHg 73%
    03:00 +13°C° 0 mm 1 mps 643 mmHg 73%
    04:00 +13°C° 0 mm 1 mps 643 mmHg 71%
    05:00 +13°C° 0 mm 1 mps 643 mmHg 70%
    06:00 +12°C° 0 mm 1 mps 642 mmHg 68%
    07:00 +15°C° 0 mm 1 mps 643 mmHg 58%
    08:00 +19°C° 0 mm 1 mps 644 mmHg 48%
    09:00 +20°C° 0 mm 2 mps 645 mmHg 38%
    10:00 +21°C° 0 mm 2 mps 644 mmHg 35%
    11:00 +24°C° 0 mm 2 mps 644 mmHg 32%
    12:00 +25°C° 0 mm 2 mps 644 mmHg 30%
    13:00 +25°C° 0 mm 2 mps 644 mmHg 29%
    14:00 +26°C° 0 mm 2 mps 643 mmHg 28%
    15:00 +26°C° 0 mm 2 mps 643 mmHg 27%
    16:00 +24°C° 0 mm 1 mps 642 mmHg 33%
    17:00 +21°C° 0 mm 1 mps 642 mmHg 38%
    18:00 +17°C° 0 mm 0 mps 641 mmHg 43%
    19:00 +19°C° 0 mm 1 mps 641 mmHg 48%
    20:00 +18°C° 0 mm 1 mps 642 mmHg 52%
    21:00 +17°C° 0 mm 2 mps 642 mmHg 57%
    22:00 +16°C° 0 mm 2 mps 642 mmHg 61%
    23:00 +16°C° 0 mm 2 mps 642 mmHg 65%

    26 September, Wednesday

    Time Temperature Precipitation Wind Pressure Humidity
    00:00 +15°C° 0 mm 2 mps 642 mmHg 69%
    01:00 +15°C° 0.1 mm 2 mps 642 mmHg 72%
    02:00 +15°C° 0.1 mm 2 mps 641 mmHg 74%
    03:00 +14°C° 0.1 mm 2 mps 641 mmHg 76%
    04:00 +14°C° 0.1 mm 2 mps 641 mmHg 77%
    05:00 +13°C° 0.1 mm 1 mps 641 mmHg 79%
    06:00 +13°C° 0.1 mm 1 mps 641 mmHg 80%
    07:00 +15°C° 0 mm 1 mps 642 mmHg 70%
    08:00 +18°C° 0 mm 1 mps 642 mmHg 60%
    09:00 +20°C° 0 mm 2 mps 643 mmHg 50%
    10:00 +21°C° 0.1 mm 2 mps 643 mmHg 46%
    11:00 +23°C° 0.1 mm 2 mps 643 mmHg 43%
    12:00 +24°C° 0.1 mm 2 mps 643 mmHg 39%
    13:00 +24°C° 0.2 mm 2 mps 643 mmHg 40%
    14:00 +24°C° 0.2 mm 2 mps 643 mmHg 41%
    15:00 +24°C° 0.2 mm 3 mps 642 mmHg 41%
    16:00 +21°C° 0.2 mm 3 mps 642 mmHg 48%
    17:00 +19°C° 0.2 mm 3 mps 642 mmHg 55%
    18:00 +18°C° 0.2 mm 3 mps 641 mmHg 62%
    19:00 +17°C° 0.1 mm 3 mps 642 mmHg 66%
    20:00 +16°C° 0.1 mm 3 mps 642 mmHg 70%
    21:00 +16°C° 0.1 mm 3 mps 642 mmHg 73%
    22:00 +14°C° 0 mm 3 mps 642 mmHg 75%
    23:00 +14°C° 0 mm 3 mps 642 mmHg 77%

    27 September, Thursday

    Time Temperature Precipitation Wind Pressure Humidity
    00:00 +13°C° 0 mm 3 mps 642 mmHg 79%
    01:00 +13°C° 0 mm 3 mps 642 mmHg 80%
    02:00 +14°C° 0 mm 2 mps 642 mmHg 81%
    03:00 +13°C° 0 mm 2 mps 642 mmHg 82%
    04:00 +13°C° 0 mm 2 mps 642 mmHg 83%
    05:00 +13°C° 0 mm 2 mps 643 mmHg 83%
    06:00 +12°C° 0 mm 2 mps 643 mmHg 84%
    07:00 +14°C° 0 mm 2 mps 643 mmHg 75%
    08:00 +16°C° 0 mm 2 mps 644 mmHg 67%
    09:00 +18°C° 0 mm 2 mps 645 mmHg 59%
    10:00 +19°C° 0 mm 2 mps 645 mmHg 55%
    11:00 +20°C° 0 mm 2 mps 645 mmHg 51%
    12:00 +21°C° 0 mm 3 mps 645 mmHg 48%
    13:00 +22°C° 0 mm 3 mps 645 mmHg 47%
    14:00 +23°C° 0 mm 2 mps 644 mmHg 47%
    15:00 +23°C° 0 mm 2 mps 644 mmHg 46%
    16:00 +20°C° 0.1 mm 2 mps 644 mmHg 52%
    17:00 +19°C° 0.1 mm 2 mps 643 mmHg 58%
    18:00 +17°C° 0.1 mm 2 mps 643 mmHg 65%
    19:00 +17°C° 0 mm 2 mps 643 mmHg 68%
    20:00 +16°C° 0 mm 3 mps 643 mmHg 72%
    21:00 +16°C° 0 mm 3 mps 644 mmHg 75%
    22:00 +16°C° 0 mm 3 mps 644 mmHg 76%
    23:00 +14°C° 0 mm 3 mps 643 mmHg 77%

    28 September, Friday

    Time Temperature Precipitation Wind Pressure Humidity
    00:00 +14°C° 0 mm 3 mps 643 mmHg 78%
    01:00 +15°C° 0 mm 2 mps 643 mmHg 78%
    02:00 +15°C° 0 mm 2 mps 643 mmHg 78%
    03:00 +14°C° 0 mm 2 mps 643 mmHg 78%
    04:00 +14°C° 0 mm 2 mps 643 mmHg 79%
    05:00 +14°C° 0 mm 2 mps 643 mmHg 79%
    06:00 +13°C° 0 mm 1 mps 643 mmHg 80%
    07:00 +15°C° 0 mm 1 mps 643 mmHg 73%
    08:00 +18°C° 0 mm 1 mps 644 mmHg 66%
    09:00 +20°C° 0 mm 1 mps 644 mmHg 59%
    10:00 +20°C° 0 mm 2 mps 645 mmHg 52%
    11:00 +21°C° 0 mm 3 mps 645 mmHg 46%
    12:00 +24°C° 0 mm 3 mps 645 mmHg 40%
    13:00 +24°C° 0 mm 3 mps 645 mmHg 40%
    14:00 +24°C° 0 mm 3 mps 645 mmHg 40%
    15:00 +24°C° 0 mm 3 mps 645 mmHg 40%
    16:00 +21°C° 0 mm 3 mps 644 mmHg 47%
    17:00 +19°C° 0 mm 3 mps 644 mmHg 54%
    18:00 +17°C° 0 mm 2 mps 644 mmHg 62%
    19:00 +17°C° 0 mm 2 mps 644 mmHg 66%
    20:00 +16°C° 0 mm 3 mps 644 mmHg 70%
    21:00 +16°C° 0 mm 3 mps 645 mmHg 75%
    22:00 +15°C° 0 mm 2 mps 645 mmHg 76%
    23:00 +15°C° 0 mm 2 mps 645 mmHg 77%
    Show more